Home   Weather   Fort St. John   Past weeks

Flag for Canada Past Weather in Fort St. John, British Columbia, Canada — Yesterday and Last 2 Weeks

32 °F

Light freezing rain. Ice fog.

Feels Like: 32 °F
Forecast: 29 / 35 °F
Wind: 2 mph from East

Location: Fort St John

Current Time: Oct 27, 2016 at 11:31:51 PM

Latest Report: Oct 27, 2016 at 11:00 PM

Visibility: 1 mi

Pressure: 30.05 "Hg (27.57 "Hg at 689m altitude)

Humidity: 93%

Dew Point: 30 °F

Location of Fort St. JohnLocation

Past Weather in Fort St. John — Graph


Fort St. John Temperature Yesterday

Maximum temperature yesterday: 32 °F (at 12:00 PM)
Minimum temperature yesterday: 28 °F (at 4:00 AM)
Average temperature yesterday: 31 °F

High & Low Weather Summary for the Past Weeks

High45 °F (Oct 21, 2:00 PM)100% (Oct 13, 8:00 PM)30.25 "Hg (Oct 13, 8:00 PM)
Low19 °F (Oct 14, 8:00 AM)49% (Oct 21, 3:00 PM)29.42 "Hg (Oct 16, 4:00 AM)
Average30 °F88%29.89 "Hg
* Reported Oct 12 10:00 PM — Oct 27 10:00 PM, Fort St. John, Weather by CustomWeather, © 2016

Note: Actual official high and low records may vary slightly from our data, if they occured in-between our weather recording intervals... More about our weather records


Fort St. John Weather History for the Previous 24 Hours

Scroll right to see more
Time TempWeatherWind HumidityBarometerVisibility
10:00 PM
Thu, Oct 27
32 °FLight mixture of precip. Ice fog.5 mph93%30.04 "Hg2 mi
9:00 PM32 °FLight snow. Ice fog.3 mph93%30.03 "Hg2 mi
8:00 PM32 °FLight snow. Ice fog.5 mph93%30.02 "Hg2 mi
7:00 PM32 °FLight snow. Ice fog.3 mph93%30.01 "Hg3 mi
6:00 PM32 °FLight snow. Low clouds.3 mph93%29.99 "Hg6 mi
5:00 PM32 °FLight snow. Low clouds.3 mph93%29.98 "Hg7 mi
4:00 PM32 °FLow clouds.6 mph93%29.97 "Hg15 mi
3:00 PM32 °FLow clouds.6 mph93%29.96 "Hg10 mi
2:00 PM32 °FMore clouds than sun.6 mph93%29.94 "Hg10 mi
1:00 PM32 °FMore clouds than sun.3 mph93%29.93 "Hg10 mi
12:00 PM32 °FLight snow. Ice fog.7 mph93%29.92 "Hg2 mi
11:00 AM30 °FLight snow. Ice fog.7 mph93%29.92 "Hg2 mi
10:00 AM30 °FLight snow. Ice fog.5 mph93%29.91 "Hg2 mi
9:00 AM30 °FLight snow. Ice fog.8 mph93%29.90 "Hg2 mi
8:00 AM30 °FLight snow. Ice fog.9 mph93%29.90 "Hg4 mi
7:00 AM30 °FLight snow. Ice fog.7 mph100%29.89 "Hg2 mi
6:00 AM30 °FIce fog.7 mph100%29.88 "Hg1 mi
5:00 AM30 °FIce fog.6 mph100%29.88 "Hg1 mi
4:00 AM30 °FIce fog.6 mph100%29.88 "Hg1 mi
3:00 AM30 °FIce fog.7 mph100%29.89 "Hg1 mi
2:00 AM30 °FIce fog.8 mph100%29.90 "Hg1 mi
1:00 AM32 °FIce fog.8 mph93%29.92 "Hg2 mi
12:00 AM32 °FIce fog.8 mph93%29.92 "Hg2 mi
11:00 PM
Wed, Oct 26
32 °FIce fog.6 mph93%29.94 "Hg2 mi
Weather by CustomWeather, © 2016

See weather overviewHow to use our weather pages